FW3613 Weather Reports


time (UTC)temp
C
wind
direction
speed
KPH
gust
KPH
rain 1hr
cm
rain 24hr
cm
rain mn
cm
humidity
%
barometer
mb
20260505125026 10 98 0.0 0.0 0.00 0.00 0.00 73 1008.1
20260505124526 10 98 0.0 0.0 0.00 0.00 0.00 73 1008.0
20260505124025 10 98 0.0 0.0 0.00 0.00 0.00 71 1007.9
20260505123524 10 98 0.0 1.6 0.00 0.00 0.00 70 1007.9
20260505123024 10 98 0.0 1.6 0.00 0.00 0.00 71 1007.8
20260505122523 10 98 0.0 0.0 0.00 0.00 0.00 72 1007.7
20260505122022 9 97 0.0 0.0 0.00 0.00 0.00 74 1007.6
20260505121521 9 98 0.0 0.0 0.00 0.00 0.00 75 1007.5
20260505121021 9 98 0.0 0.0 0.00 0.00 0.00 74 1007.3
20260505120520 9 97 0.0 0.0 0.00 0.00 0.00 74 1007.2
20260505120033 9 98 0.0 1.6 0.00 0.00 0.00 74 1007.2
20260505115518 9 97 0.0 1.6 0.00 0.00 0.00 74 1007.1
20260505115017 10 98 0.0 0.0 0.00 0.00 0.00 74 1007.1
20260505114517 10 98 0.0 1.6 0.00 0.00 0.00 73 1007.0
20260505114016 10 98 0.0 1.6 0.00 0.00 0.00 73 1007.0
20260505113514 10 98 0.0 0.0 0.00 0.00 0.00 74 1006.9
20260505113014 10 97 0.0 0.0 0.00 0.00 0.00 74 1006.8
20260505112512 10 97 0.0 0.0 0.00 0.00 0.00 73 1006.7
20260505112011 10 98 0.0 1.6 0.00 0.00 0.00 72 1006.6
20260505111522 10 98 0.0 1.6 0.00 0.00 0.00 72 1006.5
20260505111009 10 98 0.0 1.6 0.00 0.00 0.00 71 1006.4
20260505110510 10 97 0.0 0.0 0.00 0.00 0.00 72 1006.3
20260505102103 10 98 0.0 0.0 0.00 0.00 0.00 70 1005.8
20260505101600 11 98 0.0 0.0 0.00 0.00 0.00 70 1005.8
20260505101059 11 98 0.0 1.6 0.00 0.00 0.00 69 1005.7
20260505100557 11 98 0.0 1.6 0.00 0.00 0.00 68 1005.6
20260505100058 11 123 0.0 0.0 0.00 0.00 0.00 68 1005.4
20260505095557 11 123 0.0 0.0 0.00 0.00 0.00 68 1005.4
20260505095053 11 123 0.0 0.0 0.00 0.00 0.00 67 1005.3
20260505094554 11 123 0.0 0.0 0.00 0.00 0.00 66 1005.2
20260505094051 12 123 0.0 0.0 0.00 0.00 0.00 66 1005.1
20260505093550 12 123 0.0 1.6 0.00 0.00 0.00 64 1004.9
20260505093048 12 123 0.0 1.6 0.00 0.00 0.00 63 1004.9
20260505092548 12 123 0.0 0.0 0.00 0.00 0.00 60 1004.9
20260505092048 12 123 0.0 3.2 0.00 0.00 0.00 60 1004.9
20260505091608 12 123 0.0 3.2 0.00 0.00 0.00 61 1004.8
20260505091047 12 109 0.0 1.6 0.00 0.00 0.00 61 1004.8
20260505090547 12 109 0.0 1.6 0.00 0.00 0.00 61 1004.9
20260505090059 12 108 0.0 1.6 0.00 0.00 0.00 61 1004.9
20260505085544 12 103 0.0 3.2 0.00 0.00 0.00 60 1004.8
20260505085044 12 103 0.0 3.2 0.00 0.00 0.00 60 1004.6
20260505084600 12 115 0.0 3.2 0.00 0.00 0.00 61 1004.5
20260505084043 12 124 0.0 1.6 0.00 0.00 0.00 62 1004.5
20260505083540 12 127 0.0 0.0 0.00 0.00 0.00 61 1004.3
20260505083058 12 114 0.0 1.6 0.00 0.00 0.00 61 1004.3
20260505082539 12 115 0.0 1.6 0.00 0.00 0.00 61 1004.1
20260505082038 12 115 0.0 1.6 0.00 0.00 0.00 60 1004.1
20260505081552 13 115 0.0 3.2 0.00 0.00 0.00 61 1004.0
20260505081036 13 133 0.0 3.2 0.00 0.00 0.00 60 1004.0
20260505080534 13 125 0.0 1.6 0.00 0.00 0.00 59 1003.9
20260505080047 13 122 0.0 1.6 0.00 0.00 0.00 58 1004.0
20260505075534 13 122 0.0 1.6 0.00 0.00 0.00 58 1004.0
20260505075033 13 122 0.0 1.6 0.00 0.00 0.00 58 1003.9
20260505074532 13 123 0.0 3.2 0.00 0.00 0.00 58 1003.9
20260505074030 13 121 0.0 3.2 0.00 0.00 0.00 58 1003.9
20260505073531 13 117 0.0 1.6 0.00 0.00 0.00 55 1003.7
20260505073040 13 124 0.0 1.6 0.00 0.00 0.00 55 1003.7
20260505072527 14 124 0.0 1.6 0.00 0.00 0.00 55 1003.8
20260505072027 14 124 0.0 1.6 0.00 0.00 0.00 54 1003.6
20260505071539 15 124 0.0 1.6 0.00 0.00 0.00 53 1003.7
20260505071023 15 124 0.0 1.6 0.00 0.00 0.00 50 1003.5
20260505070525 15 127 0.0 1.6 0.00 0.00 0.00 50 1003.5
20260505070027 15 127 0.0 1.6 0.00 0.00 0.00 50 1003.5
20260505065521 15 127 0.0 3.2 0.00 0.00 0.00 50 1003.4
20260505065022 15 125 0.0 3.2 0.00 0.00 0.00 51 1003.4
20260505064520 15 297 0.0 1.6 0.00 0.00 0.00 51 1003.3
20260505064022 15 97 0.0 0.0 0.00 0.00 0.00 51 1003.2
20260505063518 15 98 0.0 3.2 0.00 0.00 0.00 52 1003.3
20260505063017 15 97 0.0 3.2 0.00 0.00 0.00 52 1003.2
20260505062517 15 117 0.0 3.2 0.00 0.00 0.00 50 1003.2
20260505062013 16 133 0.0 3.2 0.00 0.00 0.00 48 1003.1
20260505061524 16 132 0.0 3.2 0.00 0.00 0.00 47 1003.1
20260505061012 16 132 0.0 3.2 0.00 0.00 0.00 47 1003.1
20260505060510 16 127 0.0 3.2 0.00 0.00 0.00 45 1003.2
20260505060008 17 131 0.0 3.2 0.00 0.00 0.00 45 1003.0
20260505055607 17 127 0.0 1.6 0.00 0.00 0.00 44 1003.2
20260505055007 17 127 0.0 1.6 0.00 0.00 0.00 42 1003.1
20260505054507 17 127 0.0 1.6 0.00 0.00 0.00 43 1003.1
20260505054010 17 127 0.0 1.6 0.00 0.00 0.00 42 1003.0
20260505053506 17 127 0.0 1.6 0.00 0.00 0.00 42 1003.0
20260505053006 18 127 0.0 1.6 0.00 0.00 0.00 41 1002.9
20260505052506 18 127 0.0 4.8 0.00 0.00 0.00 41 1002.9
20260505052005 18 112 0.0 4.8 0.00 0.00 0.00 39 1002.9
20260505051506 18 77 0.0 1.6 0.00 0.00 0.00 40 1002.8
20260505051006 18 78 0.0 1.6 0.00 0.00 0.00 39 1002.8
20260505050506 18 75 0.0 1.6 0.00 0.00 0.00 38 1002.8
20260505041507 20 298 0.0 1.6 0.00 0.00 0.00 37 1002.7
20260505041003 20 300 0.0 3.2 0.00 0.00 0.00 35 1002.7
20260505040503 20 300 0.0 6.4 0.00 0.00 0.00 34 1002.6
20260505040005 21 298 1.6 8.0 0.00 0.00 0.00 33 1002.6
20260505035503 21 303 3.2 8.0 0.00 0.00 0.00 33 1002.5
20260505035003 21 297 4.8 8.0 0.00 0.00 0.00 33 1002.5
20260505034503 21 304 4.8 8.0 0.00 0.00 0.00 33 1002.5
20260505034003 21 304 4.8 6.4 0.00 0.00 0.00 32 1002.5
20260505033503 21 304 3.2 6.4 0.00 0.00 0.00 32 1002.4
20260505033003 22 299 3.2 6.4 0.00 0.00 0.00 31 1002.4
20260505032503 22 293 3.2 6.4 0.00 0.00 0.00 30 1002.4
20260505032003 22 297 1.6 6.4 0.00 0.00 0.00 28 1002.4
20260505031502 22 291 3.2 4.8 0.00 0.00 0.00 28 1002.3
20260505031002 23 291 1.6 3.2 0.00 0.00 0.00 29 1002.2
20260505030501 23 294 0.0 3.2 0.00 0.00 0.00 29 1002.2
20260505030123 23 294 0.0 6.4 0.00 0.00 0.00 28 1002.2
20260505025600 23 291 1.6 6.4 0.00 0.00 0.00 28 1002.2
20260505025105 23 297 1.6 6.4 0.00 0.00 0.00 27 1002.2
20260505024601 24 291 1.6 11.3 0.00 0.00 0.00 26 1002.2
20260505024100 24 308 1.6 11.3 0.00 0.00 0.00 26 1002.2
20260505023600 24 308 4.8 11.3 0.00 0.00 0.00 26 1002.0
20260505023100 25 304 3.2 14.5 0.00 0.00 0.00 26 1002.0
20260505022600 25 307 6.4 14.5 0.00 0.00 0.00 26 1002.0
20260505022100 25 307 3.2 12.9 0.00 0.00 0.00 26 1002.0
20260505021559 25 287 3.2 9.7 0.00 0.00 0.00 26 1002.0
20260505021058 25 317 3.2 8.0 0.00 0.00 0.00 26 1002.0
20260505020558 25 289 3.2 11.3 0.00 0.00 0.00 26 1002.0
20260505015558 26 283 1.6 12.9 0.00 0.00 0.00 25 1002.0
20260505015058 26 315 6.4 11.3 0.00 0.00 0.00 25 1002.0
20260505014610 26 301 4.8 12.9 0.00 0.00 0.00 23 1002.0
20260505014102 26 282 4.8 17.7 0.00 0.00 0.00 22 1002.0
20260505013557 26 295 8.0 17.7 0.00 0.00 0.00 21 1002.0
20260505013058 26 293 6.4 16.1 0.00 0.00 0.00 20 1002.0
20260505012557 26 294 6.4 16.1 0.00 0.00 0.00 20 1002.0
20260505012056 27 293 4.8 19.3 0.00 0.00 0.00 21 1002.1
20260505011558 26 309 4.8 19.3 0.00 0.00 0.00 21 1002.1
20260505011058 27 294 8.0 17.7 0.00 0.00 0.00 20 1002.1
20260505010555 27 296 6.4 17.7 0.00 0.00 0.00 19 1002.2
20260505005556 27 285 3.2 16.1 0.00 0.00 0.00 19 1002.3
20260505005053 27 290 6.4 14.5 0.00 0.00 0.00 19 1002.3
20260505004554 27 314 3.2 19.3 0.00 0.00 0.00 19 1002.4
20260505004051 27 294 4.8 19.3 0.00 0.00 0.00 18 1002.4
20260505003552 27 313 4.8 16.1 0.00 0.00 0.00 18 1002.6
20260505003057 27 330 8.0 16.1 0.00 0.00 0.00 19 1002.6
20260505002550 27 314 4.8 17.7 0.00 0.00 0.00 19 1002.6
20260505002049 27 288 8.0 17.7 0.00 0.00 0.00 19 1002.6
20260505001549 27 294 6.4 17.7 0.00 0.00 0.00 20 1002.6
20260505001048 27 294 6.4 16.1 0.00 0.00 0.00 20 1002.7
20260505000548 27 291 6.4 24.1 0.00 0.00 0.00 20 1002.6
20260505000053 27 316 9.7 24.1 0.00 0.00 0.00 20 1002.7
20260504235549 27 305 4.8 16.1 0.00 0.00 0.00 20 1002.7
20260504235047 27 323 4.8 16.1 0.00 0.00 0.00 21 1002.8
20260504234546 27 308 4.8 14.5 0.00 0.00 0.00 21 1002.8
20260504234045 27 285 4.8 20.9 0.00 0.00 0.00 22 1002.9
20260504233545 27 297 8.0 17.7 0.00 0.00 0.00 22 1002.8
20260504233046 27 296 4.8 19.3 0.00 0.00 0.00 23 1002.9
20260504232544 27 295 9.7 20.9 0.00 0.00 0.00 24 1003.0
20260504232042 27 294 8.0 20.9 0.00 0.00 0.00 23 1003.0
20260504231542 28 283 4.8 11.3 0.00 0.00 0.00 24 1003.0
20260504231041 27 304 1.6 16.1 0.00 0.00 0.00 24 1003.0
20260504230541 27 301 8.0 19.3 0.00 0.00 0.00 24 1003.2
20260504230040 27 279 8.0 19.3 0.00 0.00 0.00 24 1003.2
20260504225540 27 293 3.2 22.5 0.00 0.00 0.00 25 1003.3
20260504225039 27 280 4.8 22.5 0.00 0.00 0.00 24 1003.3
20260504224538 27 307 4.8 12.9 0.00 0.00 0.00 24 1003.4
20260504224037 27 301 1.6 12.9 0.00 0.00 0.00 24 1003.5
20260504223536 27 266 3.2 14.5 0.00 0.00 0.00 25 1003.6
20260504223054 27 287 4.8 14.5 0.00 0.00 0.00 25 1003.6
20260504222535 27 305 3.2 14.5 0.00 0.00 0.00 26 1003.7
20260504222033 27 303 3.2 17.7 0.00 0.00 0.00 26 1003.9
20260504221535 27 302 6.4 17.7 0.00 0.00 0.00 25 1003.9
20260504221032 27 291 4.8 17.7 0.00 0.00 0.00 25 1004.0
20260504220532 27 303 3.2 19.3 0.00 0.00 0.00 26 1004.1
20260504220032 27 279 4.8 19.3 0.00 0.00 0.00 25 1004.1
20260504215529 27 296 3.2 12.9 0.00 0.00 0.00 25 1004.2
20260504215031 26 291 4.8 17.7 0.00 0.00 0.00 26 1004.2
20260504214526 26 288 4.8 17.7 0.00 0.00 0.00 27 1004.4
20260504214029 26 295 1.6 16.1 0.00 0.00 0.00 28 1004.4
20260504213526 26 294 6.4 16.1 0.00 0.00 0.00 28 1004.5
20260504213028 26 106 3.2 12.9 0.00 0.00 0.00 28 1004.7
20260504212523 26 265 3.2 14.5 0.00 0.00 0.00 29 1004.8
20260504212024 26 300 8.0 17.7 0.00 0.00 0.00 29 1004.8
20260504211533 26 305 8.0 16.1 0.00 0.00 0.00 28 1004.9
20260504211020 26 301 4.8 11.3 0.00 0.00 0.00 29 1005.0
20260504210519 26 283 1.6 16.1 0.00 0.00 0.00 29 1005.1
20260504210018 25 274 6.4 16.1 0.00 0.00 0.00 31 1005.1
20260504205518 25 283 3.2 9.7 0.00 0.00 0.00 31 1005.2
20260504205015 25 304 3.2 14.5 0.00 0.00 0.00 31 1005.3
20260504204518 25 288 3.2 12.9 0.00 0.00 0.00 32 1005.4
20260504204014 25 283 1.6 12.9 0.00 0.00 0.00 30 1005.4
20260504203512 25 290 4.8 11.3 0.00 0.00 0.00 30 1005.5
20260504203013 25 298 4.8 14.5 0.00 0.00 0.00 30 1005.6
20260504202512 25 293 6.4 14.5 0.00 0.00 0.00 31 1005.7
20260504202009 25 304 1.6 12.9 0.00 0.00 0.00 31 1005.7
20260504201508 24 350 4.8 12.9 0.00 0.00 0.00 31 1005.7
20260504201006 24 285 0.0 11.3 0.00 0.00 0.00 32 1005.8
20260504200507 24 289 4.8 14.5 0.00 0.00 0.00 31 1005.9
20260504200007 23 303 4.8 14.5 0.00 0.00 0.00 32 1005.9
20260504195504 23 300 4.8 14.5 0.00 0.00 0.00 32 1005.9
20260504195002 23 294 1.6 11.3 0.00 0.00 0.00 33 1006.1
20260504194503 23 338 4.8 14.5 0.00 0.00 0.00 33 1006.1
20260504194001 23 285 3.2 14.5 0.00 0.00 0.00 32 1006.1
20260504193600 23 297 6.4 14.5 0.00 0.00 0.00 32 1006.2
20260504193109 23 309 1.6 14.5 0.00 0.00 0.00 33 1006.3
20260504192558 23 293 6.4 9.7 0.00 0.00 0.00 34 1006.3
20260504192057 23 273 4.8 11.3 0.00 0.00 0.00 32 1006.4
20260504191611 23 294 3.2 11.3 0.00 0.00 0.00 34 1006.5
20260504191055 22 300 3.2 11.3 0.00 0.00 0.00 34 1006.6
20260504190555 22 308 6.4 11.3 0.00 0.00 0.00 35 1006.6
20260504190106 22 305 4.8 9.7 0.00 0.00 0.00 36 1006.7
20260504185551 22 300 3.2 8.0 0.00 0.00 0.00 37 1006.7
20260504185050 22 287 0.0 8.0 0.00 0.00 0.00 38 1006.8
20260504184552 21 309 1.6 8.0 0.00 0.00 0.00 39 1006.9
20260504184049 21 290 3.2 8.0 0.00 0.00 0.00 39 1007.0
20260504183551 21 293 4.8 8.0 0.00 0.00 0.00 40 1007.1
20260504183046 21 294 0.0 8.0 0.00 0.00 0.00 41 1007.1
20260504182546 21 297 0.0 11.3 0.00 0.00 0.00 41 1007.2
20260504182044 20 307 1.6 11.3 0.00 0.00 0.00 41 1007.2
20260504181544 20 285 3.2 6.4 0.00 0.00 0.00 41 1007.3
20260504181043 20 285 1.6 9.7 0.00 0.00 0.00 41 1007.3
20260504180542 20 300 3.2 11.3 0.00 0.00 0.00 40 1007.3
20260504180042 20 297 4.8 11.3 0.00 0.00 0.00 41 1007.3
20260504175540 20 271 1.6 9.7 0.00 0.00 0.00 43 1007.4
20260504175039 20 248 1.6 11.3 0.00 0.00 0.00 43 1007.5
20260504174543 19 300 3.2 9.7 0.00 0.00 0.00 43 1007.5
20260504174037 19 297 1.6 8.0 0.00 0.00 0.00 44 1007.5
20260504173537 19 283 0.0 8.0 0.00 0.00 0.00 43 1007.5
20260504173037 19 297 1.6 8.0 0.00 0.00 0.00 42 1007.6
20260504172536 18 293 0.0 6.4 0.00 0.00 0.00 43 1007.5
20260504172036 18 283 1.6 6.4 0.00 0.00 0.00 44 1007.6
20260504171537 18 290 3.2 6.4 0.00 0.00 0.00 44 1007.6
20260504171033 18 294 0.0 4.8 0.00 0.00 0.00 45 1007.6
20260504170532 18 299 0.0 3.2 0.00 0.00 0.00 46 1007.7
20260504151009 13 120 0.0 3.2 0.00 0.00 0.00 57 1007.9
20260504150510 13 120 0.0 1.6 0.00 0.00 0.00 60 1007.9
20260504141008 9 120 0.0 0.0 0.00 0.00 0.00 77 1007.9
20260504140507 9 120 0.0 0.0 0.00 0.00 0.00 79 1007.9